User: anonymous   Login
Location: Unspecified
(0.0000°N, 0.0000°E)
Time: 19:24:05
(UTC+00:00)
Language:

S-56A Canister/Altair - Orbit

View from above orbital plane
View from above orbital plane
View from above satellite
View from above satellite

Ground track
Ground track

The orbit data is extracted from the following two-line orbital elements,

1    82U 61004B   20223.50043383 -.00000040 +00000-0 +78937-5 0  9990
2    82 038.8609 358.2653 1174506 344.4077 012.3168 12.26061784814440
Epoch (UTC): 10 August 2020 12:00:37
Eccentricity: 0.1174506
inclination: 38.8609°
perigee height: 633 km
apogee height: 2499 km
right ascension of ascending node: 358.2653°
argument of perigee: 344.4077°
revolutions per day: 12.26061784
mean anomaly at epoch: 12.3168°
orbit number at epoch: 81444

The dashed part of the orbit path shows where the satellite is in the earth's shadow,  

DLR